Time,TemperatureF,DewpointF,PressureIn,WindDirection,WindDirectionDegrees,WindSpeedMPH,WindSpeedGustMPH,Humidity,HourlyPrecipIn,Conditions,Clouds,dailyrainin,SolarRadiationWatts/m^2,SoftwareType,DateUTC
2013-04-02 00:02:00,33.0,16.9,30.01,NNW,339,0.0,3.0,51,0.00,,---,0.04,0.00,VWS V14.01,2013-04-02 04:02:00,
2013-04-02 00:05:00,32.9,16.8,30.02,NW,326,4.0,5.0,51,0.00,,---,0.00,0.00,VWS V14.01,2013-04-02 04:05:00,
2013-04-02 00:10:00,32.8,16.7,30.02,NNW,344,0.0,4.0,51,0.00,,---,0.00,0.00,VWS V14.01,2013-04-02 04:10:00,
2013-04-02 00:15:00,32.7,16.6,30.02,NW,325,1.0,2.0,51,0.00,,---,0.00,0.00,VWS V14.01,2013-04-02 04:15:00,
2013-04-02 00:20:00,32.4,16.3,30.02,NW,321,0.0,1.0,51,0.00,,---,0.00,0.00,VWS V14.01,2013-04-02 04:20:00,
2013-04-02 00:25:00,32.1,16.5,30.02,NW,321,0.0,1.0,52,0.00,,---,0.00,0.00,VWS V14.01,2013-04-02 04:25:00,
2013-04-02 00:30:00,31.8,16.2,30.02,NW,311,0.0,2.0,52,0.00,,---,0.00,0.00,VWS V14.01,2013-04-02 04:30:00,
2013-04-02 00:40:00,31.2,16.5,30.02,NW,323,0.0,2.0,54,0.00,,---,0.00,0.00,VWS V14.01,2013-04-02 04:40:00,
2013-04-02 00:50:00,30.8,16.5,30.02,North,350,0.0,4.0,55,0.00,,---,0.00,0.00,VWS V14.01,2013-04-02 04:50:00,
2013-04-02 00:55:00,30.6,16.8,30.02,West,275,4.0,7.0,56,0.00,,---,0.00,0.00,VWS V14.01,2013-04-02 04:55:00,
2013-04-02 01:00:00,30.7,16.5,30.02,NNW,327,3.0,4.0,55,0.00,,---,0.00,0.00,VWS V14.01,2013-04-02 05:00:00,
2013-04-02 01:10:00,31.0,15.9,30.02,WNW,289,0.0,6.0,53,0.00,,---,0.00,0.00,VWS V14.01,2013-04-02 05:10:00,
2013-04-02 01:15:00,31.0,15.9,30.03,NW,306,3.0,7.0,53,0.00,,---,0.00,0.00,VWS V14.01,2013-04-02 05:15:00,
2013-04-02 01:20:00,31.1,16.4,30.03,NW,322,1.0,5.0,54,0.00,,---,0.00,0.00,VWS V14.01,2013-04-02 05:20:00,
2013-04-02 01:30:00,30.9,16.2,30.03,NW,326,0.0,5.0,54,0.00,,---,0.00,0.00,VWS V14.01,2013-04-02 05:30:00,
2013-04-02 01:35:00,30.8,16.5,30.03,NW,325,0.0,2.0,55,0.00,,---,0.00,0.00,VWS V14.01,2013-04-02 05:35:00,
2013-04-02 01:45:00,30.3,16.5,30.03,NW,309,0.0,3.0,56,0.00,,---,0.00,0.00,VWS V14.01,2013-04-02 05:45:00,
2013-04-02 01:50:00,30.0,16.6,30.03,NW,311,0.0,5.0,57,0.00,,---,0.00,0.00,VWS V14.01,2013-04-02 05:50:00,
2013-04-02 01:55:00,29.9,16.5,30.03,West,275,0.0,4.0,57,0.00,,---,0.00,0.00,VWS V14.01,2013-04-02 05:55:00,
2013-04-02 02:00:00,29.7,16.8,30.03,NW,317,0.0,2.0,58,0.00,,---,0.00,0.00,VWS V14.01,2013-04-02 06:00:00,
2013-04-02 02:05:00,29.5,16.6,30.03,NW,312,1.0,2.0,58,0.00,,---,0.00,0.00,VWS V14.01,2013-04-02 06:05:00,
2013-04-02 02:15:00,29.1,17.0,30.03,NW,323,1.0,2.0,60,0.00,,---,0.00,0.00,VWS V14.01,2013-04-02 06:15:00,
2013-04-02 02:20:00,28.9,17.2,30.03,NW,312,1.0,3.0,61,0.00,,---,0.00,0.00,VWS V14.01,2013-04-02 06:20:00,
2013-04-02 02:25:00,28.8,17.1,30.03,WNW,297,0.0,2.0,61,0.00,,---,0.00,0.00,VWS V14.01,2013-04-02 06:25:00,
2013-04-02 02:30:00,28.7,17.0,30.03,NW,323,4.0,4.0,61,0.00,,---,0.00,0.00,VWS V14.01,2013-04-02 06:30:00,
2013-04-02 02:35:00,28.8,16.7,30.03,NNW,327,1.0,5.0,60,0.00,,---,0.00,0.00,VWS V14.01,2013-04-02 06:35:00,
2013-04-02 02:45:00,28.8,17.4,30.03,WNW,292,0.0,4.0,62,0.00,,---,0.00,0.00,VWS V14.01,2013-04-02 06:45:00,
2013-04-02 02:50:00,28.6,16.9,30.03,NNW,327,0.0,5.0,61,0.00,,---,0.00,0.00,VWS V14.01,2013-04-02 06:50:00,
2013-04-02 02:55:00,28.7,17.3,30.03,NNW,338,0.0,4.0,62,0.00,,---,0.00,0.00,VWS V14.01,2013-04-02 06:55:00,
2013-04-02 03:00:00,28.6,16.9,30.03,NW,315,0.0,4.0,61,0.00,,---,0.00,0.00,VWS V14.01,2013-04-02 07:00:00,
2013-04-02 03:10:00,28.4,17.4,30.03,WNW,300,1.0,2.0,63,0.00,,---,0.00,0.00,VWS V14.01,2013-04-02 07:10:00,
2013-04-02 03:15:00,28.4,17.1,30.03,NNW,338,0.0,4.0,62,0.00,,---,0.00,0.00,VWS V14.01,2013-04-02 07:15:00,
2013-04-02 03:25:00,28.2,17.2,30.03,NW,323,0.0,3.0,63,0.00,,---,0.00,0.00,VWS V14.01,2013-04-02 07:25:00,
2013-04-02 03:30:00,28.1,17.1,30.03,NW,320,0.0,2.0,63,0.00,,---,0.00,0.00,VWS V14.01,2013-04-02 07:30:00,
2013-04-02 03:35:00,28.0,17.0,30.03,NW,304,0.0,1.0,63,0.00,,---,0.00,0.00,VWS V14.01,2013-04-02 07:35:00,
2013-04-02 03:40:00,27.9,17.3,30.03,NW,304,0.0,0.0,64,0.00,,---,0.00,0.00,VWS V14.01,2013-04-02 07:40:00,
2013-04-02 03:45:00,27.7,17.1,30.03,NW,304,0.0,0.0,64,0.00,,---,0.00,0.00,VWS V14.01,2013-04-02 07:45:00,
2013-04-02 03:50:00,27.5,17.3,30.03,NW,304,0.0,0.0,65,0.00,,---,0.00,0.00,VWS V14.01,2013-04-02 07:50:00,
2013-04-02 03:55:00,27.4,17.2,30.03,NW,304,0.0,0.0,65,0.00,,---,0.00,0.00,VWS V14.01,2013-04-02 07:55:00,
2013-04-02 04:00:00,27.2,17.4,30.04,NW,304,1.0,3.0,66,0.00,,---,0.00,0.00,VWS V14.01,2013-04-02 08:00:00,
2013-04-02 04:05:00,27.0,17.2,30.04,NW,304,0.0,2.0,66,0.00,,---,0.00,0.00,VWS V14.01,2013-04-02 08:05:00,
2013-04-02 04:15:00,26.9,17.4,30.04,NNW,330,0.0,1.0,67,0.00,,---,0.00,0.00,VWS V14.01,2013-04-02 08:15:00,
2013-04-02 04:20:00,26.9,17.4,30.04,NNW,330,0.0,0.0,67,0.00,,---,0.00,0.00,VWS V14.01,2013-04-02 08:20:00,
2013-04-02 04:25:00,26.8,17.7,30.04,NNW,329,0.0,2.0,68,0.00,,---,0.00,0.00,VWS V14.01,2013-04-02 08:25:00,
2013-04-02 04:30:00,26.7,17.6,30.04,NNW,329,0.0,0.0,68,0.00,,---,0.00,0.00,VWS V14.01,2013-04-02 08:30:00,
2013-04-02 04:35:00,26.7,17.9,30.04,NNW,328,0.0,3.0,69,0.00,,---,0.00,0.00,VWS V14.01,2013-04-02 08:35:00,
2013-04-02 04:40:00,26.7,17.9,30.04,NNW,327,0.0,0.0,69,0.00,,---,0.00,0.00,VWS V14.01,2013-04-02 08:40:00,
2013-04-02 04:50:00,26.6,18.1,30.05,NW,318,2.0,2.0,70,0.00,,---,0.00,0.00,VWS V14.01,2013-04-02 08:50:00,
2013-04-02 04:55:00,26.6,18.1,30.05,WNW,285,0.0,2.0,70,0.00,,---,0.00,0.00,VWS V14.01,2013-04-02 08:55:00,
2013-04-02 05:00:00,26.7,17.9,30.05,WNW,289,0.0,1.0,69,0.00,,---,0.00,0.00,VWS V14.01,2013-04-02 09:00:00,
2013-04-02 05:05:00,26.7,18.2,30.05,WNW,289,0.0,0.0,70,0.00,,---,0.00,0.00,VWS V14.01,2013-04-02 09:05:00,
2013-04-02 05:15:00,26.5,17.7,30.05,NW,305,0.0,5.0,69,0.00,,---,0.00,0.00,VWS V14.01,2013-04-02 09:15:00,
2013-04-02 05:20:00,26.7,17.6,30.05,WNW,296,1.0,4.0,68,0.00,,---,0.00,0.00,VWS V14.01,2013-04-02 09:20:00,
2013-04-02 05:30:00,27.1,18.0,30.06,NNW,327,1.0,6.0,68,0.00,,---,0.00,0.00,VWS V14.01,2013-04-02 09:30:00,
2013-04-02 05:40:00,27.3,18.1,30.06,NW,325,3.0,4.0,68,0.00,,---,0.00,0.00,VWS V14.01,2013-04-02 09:40:00,
2013-04-02 05:50:00,27.6,19.1,30.07,NNW,338,0.0,5.0,70,0.00,,---,0.00,0.00,VWS V14.01,2013-04-02 09:50:00,
2013-04-02 06:00:00,27.8,19.6,30.07,NNW,328,2.0,3.0,71,0.00,,---,0.00,0.00,VWS V14.01,2013-04-02 10:00:00,
2013-04-02 06:05:00,27.8,20.0,30.08,North,355,1.0,5.0,72,0.00,,---,0.00,0.00,VWS V14.01,2013-04-02 10:05:00,
2013-04-02 06:15:00,27.5,19.7,30.08,North,355,4.0,5.0,72,0.00,,---,0.00,0.00,VWS V14.01,2013-04-02 10:15:00,
2013-04-02 06:20:00,27.4,19.6,30.08,North,355,1.0,6.0,72,0.00,,---,0.00,0.00,VWS V14.01,2013-04-02 10:20:00,
2013-04-02 06:30:00,27.2,19.1,30.08,North,10,0.0,5.0,71,0.00,,---,0.00,0.00,VWS V14.01,2013-04-02 10:30:00,
2013-04-02 06:35:00,27.1,19.0,30.09,NNW,346,3.0,8.0,71,0.00,,---,0.00,0.00,VWS V14.01,2013-04-02 10:35:00,
2013-04-02 06:40:00,27.1,19.3,30.09,NNW,334,0.0,4.0,72,0.00,,---,0.00,0.00,VWS V14.01,2013-04-02 10:40:00,
2013-04-02 06:45:00,27.0,19.5,30.09,NNW,327,3.0,3.0,73,0.00,,---,0.00,0.00,VWS V14.01,2013-04-02 10:45:00,
2013-04-02 06:55:00,27.0,19.5,30.09,North,5,2.0,4.0,73,0.00,,---,0.00,0.00,VWS V14.01,2013-04-02 10:55:00,
2013-04-02 07:05:00,26.9,19.7,30.10,NW,309,1.0,5.0,74,0.00,,---,0.00,5.00,VWS V14.01,2013-04-02 11:05:00,
2013-04-02 07:10:00,26.9,19.7,30.11,WNW,296,2.0,4.0,74,0.00,,---,0.00,7.00,VWS V14.01,2013-04-02 11:10:00,
2013-04-02 07:15:00,26.9,19.7,30.11,ESE,103,0.0,7.0,74,0.00,,---,0.00,12.00,VWS V14.01,2013-04-02 11:15:00,
2013-04-02 07:20:00,26.9,19.7,30.11,North,5,5.0,6.0,74,0.00,,---,0.00,16.00,VWS V14.01,2013-04-02 11:20:00,
2013-04-02 07:25:00,26.9,20.0,30.12,NW,325,2.0,6.0,75,0.00,,---,0.00,21.00,VWS V14.01,2013-04-02 11:25:00,
2013-04-02 07:35:00,26.9,20.7,30.13,NNW,329,2.0,5.0,77,0.00,,---,0.00,25.00,VWS V14.01,2013-04-02 11:35:00,
2013-04-02 07:40:00,27.0,21.1,30.13,NW,321,2.0,8.0,78,0.00,,---,0.00,26.00,VWS V14.01,2013-04-02 11:40:00,
2013-04-02 07:45:00,26.9,21.6,30.13,NW,325,1.0,5.0,80,0.00,,---,0.00,30.00,VWS V14.01,2013-04-02 11:45:00,
2013-04-02 07:50:00,26.8,21.8,30.13,North,355,5.0,6.0,81,0.00,,---,0.00,26.00,VWS V14.01,2013-04-02 11:50:00,
2013-04-02 07:55:00,26.5,21.2,30.14,NW,324,2.0,7.0,80,0.00,,---,0.00,21.00,VWS V14.01,2013-04-02 11:55:00,
2013-04-02 08:00:00,26.3,20.7,30.14,WNW,301,0.0,7.0,79,0.00,,---,0.00,28.00,VWS V14.01,2013-04-02 12:00:00,
2013-04-02 08:10:00,26.0,20.4,30.15,NW,318,2.0,7.0,79,0.00,,---,0.00,30.00,VWS V14.01,2013-04-02 12:10:00,
2013-04-02 08:20:00,26.0,21.0,30.15,NW,304,2.0,5.0,81,0.00,,---,0.00,40.00,VWS V14.01,2013-04-02 12:20:00,
2013-04-02 08:25:00,26.2,20.9,30.16,WNW,298,2.0,7.0,80,0.00,,---,0.00,211.00,VWS V14.01,2013-04-02 12:25:00,
2013-04-02 08:35:00,27.8,21.5,30.16,NNW,327,6.0,8.0,77,0.00,,---,0.00,244.00,VWS V14.01,2013-04-02 12:35:00,
2013-04-02 08:40:00,28.6,22.0,30.16,WNW,303,3.0,6.0,76,0.00,,---,0.00,267.00,VWS V14.01,2013-04-02 12:40:00,
2013-04-02 08:45:00,29.2,21.3,30.16,WSW,242,1.0,7.0,72,0.00,,---,0.00,299.00,VWS V14.01,2013-04-02 12:45:00,
2013-04-02 08:50:00,29.6,21.0,30.17,NW,307,3.0,4.0,70,0.00,,---,0.00,276.00,VWS V14.01,2013-04-02 12:50:00,
2013-04-02 09:00:00,30.0,20.7,30.17,West,268,0.0,6.0,68,0.00,,---,0.00,274.00,VWS V14.01,2013-04-02 13:00:00,
2013-04-02 09:05:00,30.3,20.7,30.17,NW,312,0.0,5.0,67,0.00,,---,0.00,193.00,VWS V14.01,2013-04-02 13:05:00,
2013-04-02 09:10:00,30.7,20.7,30.17,West,277,3.0,6.0,66,0.00,,---,0.00,376.00,VWS V14.01,2013-04-02 13:10:00,
2013-04-02 09:20:00,31.7,20.6,30.17,West,263,0.0,8.0,63,0.00,,---,0.00,434.00,VWS V14.01,2013-04-02 13:20:00,
2013-04-02 09:30:00,32.0,19.7,30.17,WNW,290,1.0,8.0,60,0.00,,---,0.00,450.00,VWS V14.01,2013-04-02 13:30:00,
2013-04-02 09:35:00,32.8,21.2,30.17,North,9,3.0,6.0,62,0.00,,---,0.00,499.00,VWS V14.01,2013-04-02 13:35:00,
2013-04-02 09:40:00,33.0,17.8,30.17,North,355,6.0,11.0,53,0.00,,---,0.00,497.00,VWS V14.01,2013-04-02 13:40:00,
2013-04-02 09:45:00,33.2,18.8,30.17,West,271,5.0,7.0,55,0.00,,---,0.00,524.00,VWS V14.01,2013-04-02 13:45:00,
2013-04-02 09:50:00,33.6,19.2,30.17,NW,307,6.0,11.0,55,0.00,,---,0.00,547.00,VWS V14.01,2013-04-02 13:50:00,
2013-04-02 09:55:00,33.6,17.4,30.17,NNW,339,5.0,10.0,51,0.00,,---,0.00,105.00,VWS V14.01,2013-04-02 13:55:00,
2013-04-02 10:00:00,33.5,18.6,30.17,SW,218,0.0,6.0,54,0.00,,---,0.00,633.00,VWS V14.01,2013-04-02 14:00:00,
2013-04-02 10:10:00,33.7,17.5,30.17,WNW,290,3.0,15.0,51,0.00,,---,0.00,93.00,VWS V14.01,2013-04-02 14:10:00,
2013-04-02 10:20:00,33.5,17.3,30.18,NW,323,3.0,8.0,51,0.00,,---,0.00,719.00,VWS V14.01,2013-04-02 14:20:00,
2013-04-02 10:25:00,34.0,15.4,30.17,NNW,337,1.0,6.0,46,0.00,,---,0.00,132.00,VWS V14.01,2013-04-02 14:25:00,
2013-04-02 10:35:00,34.1,16.0,30.18,NW,325,1.0,9.0,47,0.00,,---,0.00,798.00,VWS V14.01,2013-04-02 14:35:00,
2013-04-02 10:40:00,34.7,17.0,30.18,WNW,289,2.0,7.0,48,0.00,,---,0.00,714.00,VWS V14.01,2013-04-02 14:40:00,
2013-04-02 10:45:00,35.3,18.1,30.18,South,182,2.0,9.0,49,0.00,,---,0.00,758.00,VWS V14.01,2013-04-02 14:45:00,
2013-04-02 10:55:00,35.8,16.0,30.18,NNW,329,10.0,14.0,44,0.00,,---,0.00,798.00,VWS V14.01,2013-04-02 14:55:00,
2013-04-02 11:00:00,36.7,18.9,30.18,NW,306,2.0,10.0,48,0.00,,---,0.00,889.00,VWS V14.01,2013-04-02 15:00:00,
2013-04-02 11:05:00,36.4,15.0,30.18,WSW,246,3.0,13.0,41,0.00,,---,0.00,410.00,VWS V14.01,2013-04-02 15:05:00,
2013-04-02 11:10:00,35.7,14.3,30.18,NNW,347,4.0,8.0,41,0.00,,---,0.00,410.00,VWS V14.01,2013-04-02 15:10:00,
2013-04-02 11:20:00,34.8,14.1,30.18,NW,315,4.0,13.0,42,0.00,,---,0.00,262.00,VWS V14.01,2013-04-02 15:20:00,
2013-04-02 11:25:00,34.8,14.6,30.18,WSW,252,6.0,10.0,43,0.00,,---,0.00,1000.00,VWS V14.01,2013-04-02 15:25:00,
2013-04-02 11:35:00,35.5,14.7,30.18,NW,311,9.0,12.0,42,0.00,,---,0.00,362.00,VWS V14.01,2013-04-02 15:35:00,
2013-04-02 11:45:00,35.9,15.1,30.18,NNW,340,7.0,10.0,42,0.00,,---,0.00,455.00,VWS V14.01,2013-04-02 15:45:00,
2013-04-02 11:55:00,36.6,17.8,30.18,NW,321,2.0,7.0,46,0.00,,---,0.00,345.00,VWS V14.01,2013-04-02 15:55:00,
2013-04-02 12:01:00,37.6,16.6,30.18,NNW,344,5.0,14.0,42,0.00,,---,0.00,773.00,VWS V14.01,2013-04-02 16:01:00,
2013-04-02 12:10:00,37.0,16.6,30.18,WNW,293,5.0,15.0,43,0.00,,---,0.00,963.00,VWS V14.01,2013-04-02 16:10:00,
2013-04-02 12:15:00,37.1,18.2,30.18,NNW,345,1.0,13.0,46,0.00,,---,0.00,1034.00,VWS V14.01,2013-04-02 16:15:00,
2013-04-02 12:25:00,36.9,14.3,30.18,NW,305,9.0,14.0,39,0.00,,---,0.00,345.00,VWS V14.01,2013-04-02 16:25:00,
2013-04-02 12:35:00,36.9,15.4,30.17,WNW,288,6.0,14.0,41,0.00,,---,0.00,413.00,VWS V14.01,2013-04-02 16:35:00,
2013-04-02 12:45:00,36.8,15.3,30.17,WSW,250,2.0,9.0,41,0.00,,---,0.00,387.00,VWS V14.01,2013-04-02 16:45:00,
2013-04-02 12:55:00,36.9,14.3,30.17,NW,304,6.0,15.0,39,0.00,,---,0.00,246.00,VWS V14.01,2013-04-02 16:55:00,
2013-04-02 13:00:00,37.1,15.6,30.17,NNW,340,5.0,12.0,41,0.00,,---,0.00,1095.00,VWS V14.01,2013-04-02 17:00:00,
2013-04-02 13:05:00,37.9,16.3,30.17,North,355,1.0,8.0,41,0.00,,---,0.00,353.00,VWS V14.01,2013-04-02 17:05:00,
2013-04-02 13:10:00,37.9,14.0,30.17,NW,324,9.0,16.0,37,0.00,,---,0.00,1023.00,VWS V14.01,2013-04-02 17:10:00,
2013-04-02 13:15:00,38.5,17.4,30.17,WNW,302,0.0,11.0,42,0.00,,---,0.00,1132.00,VWS V14.01,2013-04-02 17:15:00,
2013-04-02 13:20:00,39.6,16.7,30.17,WNW,291,8.0,14.0,39,0.00,,---,0.00,1114.00,VWS V14.01,2013-04-02 17:20:00,
2013-04-02 13:25:00,39.2,13.9,30.17,SW,235,3.0,15.0,35,0.00,,---,0.00,318.00,VWS V14.01,2013-04-02 17:25:00,
2013-04-02 13:40:00,36.9,14.3,30.16,SW,217,2.0,10.0,39,0.00,,---,0.00,339.00,VWS V14.01,2013-04-02 17:40:00,
2013-04-02 13:50:00,36.3,13.7,30.16,WNW,293,1.0,13.0,39,0.00,,---,0.00,214.00,VWS V14.01,2013-04-02 17:50:00,
2013-04-02 13:55:00,36.7,16.9,30.16,WNW,297,2.0,7.0,44,0.00,,---,0.00,269.00,VWS V14.01,2013-04-02 17:55:00,
2013-04-02 14:00:00,37.6,14.3,30.16,NNW,342,5.0,10.0,38,0.00,,---,0.00,251.00,VWS V14.01,2013-04-02 18:00:00,
2013-04-02 14:05:00,37.0,13.2,30.16,NW,311,2.0,14.0,37,0.00,,---,0.00,272.00,VWS V14.01,2013-04-02 18:05:00,
2013-04-02 14:10:00,36.5,13.9,30.15,NNE,12,8.0,14.0,39,0.00,,---,0.00,359.00,VWS V14.01,2013-04-02 18:10:00,
2013-04-02 14:15:00,37.4,14.7,30.15,WNW,299,4.0,9.0,39,0.00,,---,0.00,357.00,VWS V14.01,2013-04-02 18:15:00,
2013-04-02 14:20:00,38.4,15.0,30.16,WNW,297,6.0,17.0,38,0.00,,---,0.00,339.00,VWS V14.01,2013-04-02 18:20:00,
2013-04-02 14:30:00,39.0,15.6,30.15,NNW,330,4.0,11.0,38,0.00,,---,0.00,1127.00,VWS V14.01,2013-04-02 18:30:00,
2013-04-02 14:35:00,40.0,14.6,30.15,WSW,239,6.0,16.0,35,0.00,,---,0.00,1067.00,VWS V14.01,2013-04-02 18:35:00,
2013-04-02 14:40:00,40.2,14.1,30.15,NNW,329,11.0,15.0,34,0.00,,---,0.00,1007.00,VWS V14.01,2013-04-02 18:40:00,
2013-04-02 14:45:00,40.2,14.1,30.15,NW,323,14.0,14.0,34,0.00,,---,0.00,290.00,VWS V14.01,2013-04-02 18:45:00,
2013-04-02 14:55:00,40.3,19.0,30.15,West,266,5.0,13.0,42,0.00,,---,0.00,963.00,VWS V14.01,2013-04-02 18:55:00,
2013-04-02 15:00:00,41.4,15.1,30.14,WSW,246,3.0,11.0,34,0.00,,---,0.00,290.00,VWS V14.01,2013-04-02 19:00:00,
2013-04-02 15:05:00,41.6,14.6,30.14,NW,309,5.0,14.0,33,0.00,,---,0.00,1065.00,VWS V14.01,2013-04-02 19:05:00,
2013-04-02 15:10:00,41.1,14.9,30.14,WNW,288,8.0,9.0,34,0.00,,---,0.00,294.00,VWS V14.01,2013-04-02 19:10:00,
2013-04-02 15:20:00,40.5,15.0,30.14,NNE,13,4.0,11.0,35,0.00,,---,0.00,497.00,VWS V14.01,2013-04-02 19:20:00,
2013-04-02 15:25:00,40.7,17.1,30.14,WNW,282,5.0,12.0,38,0.00,,---,0.00,323.00,VWS V14.01,2013-04-02 19:25:00,
2013-04-02 15:35:00,40.9,16.6,30.14,NNW,337,2.0,8.0,37,0.00,,---,0.00,216.00,VWS V14.01,2013-04-02 19:35:00,
2013-04-02 15:40:00,40.2,15.4,30.14,WNW,298,2.0,11.0,36,0.00,,---,0.00,339.00,VWS V14.01,2013-04-02 19:40:00,
2013-04-02 15:50:00,40.0,14.6,30.14,NNW,337,7.0,16.0,35,0.00,,---,0.00,761.00,VWS V14.01,2013-04-02 19:50:00,
2013-04-02 15:55:00,40.0,16.5,30.13,SW,233,1.0,15.0,38,0.00,,---,0.00,698.00,VWS V14.01,2013-04-02 19:55:00,
2013-04-02 16:05:00,41.1,17.4,30.13,WNW,302,2.0,19.0,38,0.00,,---,0.00,844.00,VWS V14.01,2013-04-02 20:05:00,
2013-04-02 16:10:00,42.2,19.0,30.13,NW,309,5.0,11.0,39,0.00,,---,0.00,791.00,VWS V14.01,2013-04-02 20:10:00,
2013-04-02 16:15:00,42.4,16.0,30.13,NW,304,3.0,18.0,34,0.00,,---,0.00,694.00,VWS V14.01,2013-04-02 20:15:00,
2013-04-02 16:20:00,42.4,15.4,30.13,NW,323,11.0,18.0,33,0.00,,---,0.00,719.00,VWS V14.01,2013-04-02 20:20:00,
2013-04-02 16:25:00,41.5,13.9,30.13,NW,313,5.0,17.0,32,0.00,,---,0.00,700.00,VWS V14.01,2013-04-02 20:25:00,
2013-04-02 16:30:00,41.4,15.1,30.13,WNW,286,3.0,15.0,34,0.00,,---,0.00,570.00,VWS V14.01,2013-04-02 20:30:00,
2013-04-02 16:40:00,41.8,14.8,30.13,NNW,328,4.0,10.0,33,0.00,,---,0.00,181.00,VWS V14.01,2013-04-02 20:40:00,
2013-04-02 16:45:00,40.9,17.3,30.13,WNW,300,6.0,11.0,38,0.00,,---,0.00,195.00,VWS V14.01,2013-04-02 20:45:00,
2013-04-02 16:50:00,40.1,14.7,30.13,WNW,301,4.0,10.0,35,0.00,,---,0.00,148.00,VWS V14.01,2013-04-02 20:50:00,
2013-04-02 16:55:00,39.4,15.3,30.13,NNW,332,7.0,14.0,37,0.00,,---,0.00,642.00,VWS V14.01,2013-04-02 20:55:00,
2013-04-02 17:05:00,39.0,16.2,30.13,NNW,333,6.0,11.0,39,0.00,,---,0.00,146.00,VWS V14.01,2013-04-02 21:05:00,
2013-04-02 17:15:00,39.5,15.4,30.13,NW,317,7.0,14.0,37,0.00,,---,0.00,612.00,VWS V14.01,2013-04-02 21:15:00,
2013-04-02 17:25:00,39.4,14.0,30.14,NW,319,11.0,20.0,35,0.00,,---,0.00,153.00,VWS V14.01,2013-04-02 21:25:00,
2013-04-02 17:30:00,38.9,14.9,30.14,NW,325,6.0,18.0,37,0.00,,---,0.00,104.00,VWS V14.01,2013-04-02 21:30:00,
2013-04-02 17:40:00,38.6,14.6,30.15,NNW,345,11.0,11.0,37,0.00,,---,0.00,167.00,VWS V14.01,2013-04-02 21:40:00,
2013-04-02 17:50:00,38.2,14.8,30.15,North,5,2.0,13.0,38,0.00,,---,0.00,128.00,VWS V14.01,2013-04-02 21:50:00,
2013-04-02 18:00:00,38.0,14.1,30.15,WNW,292,3.0,12.0,37,0.00,,---,0.00,76.00,VWS V14.01,2013-04-02 22:00:00,
2013-04-02 18:05:00,37.8,13.9,30.14,NW,309,5.0,11.0,37,0.00,,---,0.00,107.00,VWS V14.01,2013-04-02 22:05:00,
2013-04-02 18:15:00,37.9,14.0,30.15,NW,317,6.0,14.0,37,0.00,,---,0.00,107.00,VWS V14.01,2013-04-02 22:15:00,
2013-04-02 18:20:00,38.2,14.2,30.15,WNW,300,3.0,9.0,37,0.00,,---,0.00,79.00,VWS V14.01,2013-04-02 22:20:00,
2013-04-02 18:25:00,38.3,13.1,30.15,NW,315,9.0,13.0,35,0.00,,---,0.00,58.00,VWS V14.01,2013-04-02 22:25:00,
2013-04-02 18:35:00,37.7,13.8,30.15,NE,46,7.0,9.0,37,0.00,,---,0.00,77.00,VWS V14.01,2013-04-02 22:35:00,
2013-04-02 18:40:00,37.6,14.3,30.15,WNW,290,5.0,8.0,38,0.00,,---,0.00,69.00,VWS V14.01,2013-04-02 22:40:00,
2013-04-02 18:50:00,37.5,14.2,30.16,NNW,338,5.0,10.0,38,0.00,,---,0.00,83.00,VWS V14.01,2013-04-02 22:50:00,
2013-04-02 18:55:00,37.8,13.9,30.16,NW,307,9.0,14.0,37,0.00,,---,0.00,70.00,VWS V14.01,2013-04-02 22:55:00,
2013-04-02 19:05:00,38.0,13.4,30.16,NW,310,3.0,8.0,36,0.00,,---,0.00,42.00,VWS V14.01,2013-04-02 23:05:00,
2013-04-02 19:15:00,37.2,12.7,30.16,SW,216,3.0,18.0,36,0.00,,---,0.00,21.00,VWS V14.01,2013-04-02 23:15:00,
2013-04-02 19:20:00,36.9,13.7,30.17,NNW,340,5.0,13.0,38,0.00,,---,0.00,18.00,VWS V14.01,2013-04-02 23:20:00,
2013-04-02 19:30:00,36.4,13.2,30.17,NW,326,0.0,7.0,38,0.00,,---,0.00,12.00,VWS V14.01,2013-04-02 23:30:00,
2013-04-02 19:35:00,36.2,13.1,30.17,NW,325,5.0,8.0,38,0.00,,---,0.00,12.00,VWS V14.01,2013-04-02 23:35:00,
2013-04-02 19:45:00,36.0,13.5,30.17,NW,314,3.0,11.0,39,0.00,,---,0.00,5.00,VWS V14.01,2013-04-02 23:45:00,
2013-04-02 19:50:00,35.8,13.3,30.17,NW,309,5.0,7.0,39,0.00,,---,0.00,0.00,VWS V14.01,2013-04-02 23:50:00,
2013-04-02 19:55:00,35.7,13.2,30.17,North,350,7.0,10.0,39,0.00,,---,0.00,0.00,VWS V14.01,2013-04-02 23:55:00,
2013-04-02 20:05:00,35.5,13.0,30.17,NW,306,2.0,9.0,39,0.00,,---,0.00,0.00,VWS V14.01,2013-04-03 00:05:00,
2013-04-02 20:15:00,35.3,12.8,30.17,NNW,336,5.0,8.0,39,0.00,,---,0.00,0.00,VWS V14.01,2013-04-03 00:15:00,
2013-04-02 20:20:00,35.2,13.3,30.17,NW,324,0.0,5.0,40,0.00,,---,0.00,0.00,VWS V14.01,2013-04-03 00:20:00,
2013-04-02 20:25:00,35.0,13.7,30.17,NNW,336,3.0,4.0,41,0.00,,---,0.00,0.00,VWS V14.01,2013-04-03 00:25:00,
2013-04-02 20:35:00,34.7,13.4,30.18,NW,326,0.0,4.0,41,0.00,,---,0.00,0.00,VWS V14.01,2013-04-03 00:35:00,
2013-04-02 20:40:00,34.5,13.8,30.18,NNW,338,0.0,4.0,42,0.00,,---,0.00,0.00,VWS V14.01,2013-04-03 00:40:00,
2013-04-02 20:45:00,34.3,13.1,30.18,NNW,340,0.0,2.0,41,0.00,,---,0.00,0.00,VWS V14.01,2013-04-03 00:45:00,
2013-04-02 20:55:00,33.8,13.1,30.18,NNW,348,0.0,3.0,42,0.00,,---,0.00,0.00,VWS V14.01,2013-04-03 00:55:00,
2013-04-02 21:05:00,33.5,13.4,30.19,NNW,334,0.0,3.0,43,0.00,,---,0.00,0.00,VWS V14.01,2013-04-03 01:05:00,
2013-04-02 21:10:00,33.2,14.2,30.19,NNW,327,0.0,0.0,45,0.00,,---,0.00,0.00,VWS V14.01,2013-04-03 01:10:00,
2013-04-02 21:15:00,33.0,14.0,30.19,WNW,296,0.0,3.0,45,0.00,,---,0.00,0.00,VWS V14.01,2013-04-03 01:15:00,
2013-04-02 21:20:00,32.7,14.2,30.19,NNW,327,1.0,1.0,46,0.00,,---,0.00,0.00,VWS V14.01,2013-04-03 01:20:00,
2013-04-02 21:30:00,32.1,13.2,30.19,NW,321,0.0,0.0,45,0.00,,---,0.00,0.00,VWS V14.01,2013-04-03 01:30:00,
2013-04-02 21:35:00,31.9,13.5,30.19,West,269,0.0,1.0,46,0.00,,---,0.00,0.00,VWS V14.01,2013-04-03 01:35:00,
2013-04-02 21:40:00,31.8,13.9,30.19,West,269,0.0,0.0,47,0.00,,---,0.00,0.00,VWS V14.01,2013-04-03 01:40:00,
2013-04-02 21:50:00,31.4,14.0,30.19,West,269,0.0,0.0,48,0.00,,---,0.00,0.00,VWS V14.01,2013-04-03 01:50:00,
2013-04-02 22:00:00,30.8,14.4,30.20,West,269,0.0,0.0,50,0.00,,---,0.00,0.00,VWS V14.01,2013-04-03 02:00:00,
2013-04-02 22:10:00,30.4,14.9,30.20,West,269,0.0,0.0,52,0.00,,---,0.00,0.00,VWS V14.01,2013-04-03 02:10:00,
2013-04-02 22:15:00,30.2,15.1,30.20,West,269,0.0,0.0,53,0.00,,---,0.00,0.00,VWS V14.01,2013-04-03 02:15:00,
2013-04-02 22:20:00,30.2,15.1,30.20,West,269,0.0,0.0,53,0.00,,---,0.00,0.00,VWS V14.01,2013-04-03 02:20:00,
2013-04-02 22:30:00,29.9,15.3,30.20,West,269,0.0,0.0,54,0.00,,---,0.00,0.00,VWS V14.01,2013-04-03 02:30:00,
2013-04-02 22:35:00,29.7,15.1,30.20,West,269,0.0,0.0,54,0.00,,---,0.00,0.00,VWS V14.01,2013-04-03 02:35:00,
2013-04-02 22:40:00,29.7,14.7,30.19,WNW,300,0.0,3.0,53,0.00,,---,0.00,0.00,VWS V14.01,2013-04-03 02:40:00,
2013-04-02 22:45:00,29.6,15.0,30.20,NW,317,0.0,2.0,54,0.00,,---,0.00,0.00,VWS V14.01,2013-04-03 02:45:00,
2013-04-02 22:50:00,29.5,14.9,30.19,NW,317,0.0,0.0,54,0.00,,---,0.00,0.00,VWS V14.01,2013-04-03 02:50:00,
2013-04-02 23:00:00,29.4,14.8,30.20,NW,317,0.0,0.0,54,0.00,,---,0.00,0.00,VWS V14.01,2013-04-03 03:00:00,
2013-04-02 23:10:00,29.3,15.6,30.20,NW,317,0.0,0.0,56,0.00,,---,0.00,0.00,VWS V14.01,2013-04-03 03:10:00,
2013-04-02 23:20:00,29.0,15.3,30.19,NW,317,0.0,0.0,56,0.00,,---,0.00,0.00,VWS V14.01,2013-04-03 03:20:00,
2013-04-02 23:25:00,28.8,14.7,30.19,NW,317,0.0,0.0,55,0.00,,---,0.00,0.00,VWS V14.01,2013-04-03 03:25:00,
2013-04-02 23:35:00,28.5,15.2,30.19,NW,317,0.0,0.0,57,0.00,,---,0.00,0.00,VWS V14.01,2013-04-03 03:35:00,
2013-04-02 23:40:00,28.3,15.8,30.19,NW,317,0.0,0.0,59,0.00,,---,0.00,0.00,VWS V14.01,2013-04-03 03:40:00,
2013-04-02 23:45:00,28.1,16.0,30.19,NW,317,0.0,0.0,60,0.00,,---,0.00,0.00,VWS V14.01,2013-04-03 03:45:00,
2013-04-02 23:55:00,27.7,16.4,30.19,NW,317,0.0,0.0,62,0.00,,---,0.00,0.00,VWS V14.01,2013-04-03 03:55:00,